EHI
0 0 0 0 0 0 0 0 0 0 0 0 0 0 0 0 0 0 0 0 0 1 4 10 15 18 19 19 19 17 13 9 6 4 3 2 1 0 0 1 1 0 0 1 1 1 0 0 0
0 0 0 0 0 0 0 0 0 0 0 0 0 0 0 0 0 0 0 0 1 3 6 11 15 18 19 19 19 18 14 9 6 4 2 1 1 0 1 2 2 1 0 0 0 0 0 0 0
0 0 0 0 0 0 0 0 0 0 0 0 0 0 0 0 0 0 0 1 3 5 9 12 16 18 19 19 19 18 14 9 6 4 2 1 0 0 1 2 2 1 0 0 0 0 0 0 0
0 0 0 0 0 0 0 0 0 0 0 0 0 0 0 0 0 0 1 3 6 8 10 13 15 17 18 18 18 17 13 8 5 3 2 1 0 0 0 1 1 1 1 1 0 0 0 0 0
0 0 0 0 0 0 0 0 0 0 0 0 0 0 0 0 0 1 3 5 8 11 11 12 14 15 16 15 15 14 12 9 6 4 3 2 1 0 0 0 1 2 2 1 0 0 0 0 0
0 0 0 0 0 0 0 0 0 0 0 0 0 0 0 0 0 1 4 6 9 11 11 11 11 13 13 13 12 12 10 9 8 6 4 3 1 0 0 0 1 1 1 0 0 0 0 0 0
0 0 0 0 0 0 0 0 0 0 0 0 0 0 0 0 1 1 3 6 9 10 10 10 10 11 11 11 10 9 8 8 8 6 3 1 0 0 0 0 1 1 0 0 0 0 0 0 0
0 0 0 0 0 0 0 0 0 0 0 0 0 0 0 1 2 2 3 6 9 10 9 9 9 9 9 9 8 7 6 6 5 4 2 0 0 0 0 0 1 0 0 0 0 0 0 0 0
0 0 0 0 0 0 0 0 0 0 0 0 0 0 0 1 3 3 3 5 8 9 8 8 7 7 7 7 7 6 5 3 2 1 0 0 0 0 0 0 0 0 0 0 0 0 0 0 0
0 0 0 0 0 0 0 0 0 0 0 0 0 0 1 2 3 3 3 4 5 7 7 7 6 6 6 6 5 4 3 2 0 0 0 0 0 0 0 0 0 0 0 0 0 0 0 0 0
0 0 0 0 0 0 0 0 0 0 0 0 0 0 1 3 3 3 2 2 4 5 6 6 6 6 6 5 4 3 3 2 1 0 0 0 0 0 0 0 0 0 0 0 0 0 0 0 0
0 0 0 0 0 0 0 0 0 0 0 0 0 0 2 3 3 2 1 1 2 4 5 6 6 5 4 4 3 3 3 2 1 0 0 0 0 0 0 0 0 0 0 0 0 0 0 0 0
0 0 0 0 0 0 0 0 0 0 0 0 0 0 1 2 2 1 1 1 1 2 3 4 5 4 3 3 3 3 3 2 1 0 0 0 0 0 0 0 0 0 0 0 0 0 0 0 0
0 0 0 0 0 0 0 0 0 0 0 0 0 0 1 1 1 1 2 2 1 1 1 1 3 3 3 3 3 3 3 2 1 0 0 0 0 0 0 0 0 0 0 0 0 0 0 0 0
0 0 0 0 0 0 0 0 0 0 0 0 0 0 0 0 0 1 2 3 1 0 0 0 1 2 3 3 3 3 3 2 1 0 0 0 0 0 0 0 0 0 0 0 0 0 0 0 0
0 0 0 0 0 0 0 0 0 0 0 0 0 0 0 0 0 1 2 3 2 1 0 0 0 1 2 3 3 3 3 2 1 0 0 0 0 0 0 0 0 0 0 0 0 0 0 0 0
0 0 0 0 0 0 0 0 0 0 0 0 0 0 0 0 0 0 1 2 3 2 1 0 0 0 1 1 2 2 2 2 1 0 0 0 0 0 0 0 0 0 0 0 0 0 0 0 0
0 0 0 0 0 0 0 0 0 0 0 0 0 0 0 0 0 0 0 1 2 2 1 0 0 0 0 0 1 1 1 1 0 0 0 0 0 0 0 0 0 0 0 0 0 0 0 0 0
0 0 0 0 0 0 0 0 0 0 0 0 0 0 0 0 0 0 0 0 1 1 0 0 0 0 0 0 0 0 0 0 0 0 0 0 0 0 0 0 0 0 0 0 0 0 0 0 0
0 0 0 0 0 0 0 0 0 0 0 0 0 0 0 0 0 0 0 0 0 0 0 0 0 0 0 0 0 0 0 0 0 0 0 0 0 0 0 0 0 0 0 0 0 0 0 0 0
0 0 0 0 0 0 0 0 0 0 0 0 0 0 0 0 0 0 0 0 0 0 0 0 0 0 0 0 0 0 0 0 0 0 0 0 0 0 0 0 0 0 0 0 0 0 0 0 0
0 0 0 0 0 0 0 0 0 0 0 0 0 0 0 0 0 0 0 0 0 0 0 0 0 0 0 0 0 0 0 0 0 0 0 0 0 0 0 0 0 0 0 0 0 0 0 0 0
0 0 0 0 0 0 0 0 0 0 0 0 0 0 0 0 0 0 0 0 0 0 0 0 0 0 0 0 0 0 0 0 0 0 0 0 0 0 0 0 0 0 0 0 0 0 0 0 0
0 0 0 0 0 0 0 0 0 0 0 0 0 0 0 0 0 0 0 0 0 0 0 0 0 0 0 0 0 0 0 0 0 0 0 0 0 0 0 0 0 0 0 0 0 0 0 0 0
0 0 0 0 0 0 0 0 0 0 0 0 0 0 0 0 0 0 0 0 0 0 0 0 0 0 0 0 0 0 0 0 0 0 0 0 0 0 0 0 0 0 0 0 0 0 0 0 0
0 0 0 0 0 0 0 0 0 0 0 0 0 0 0 0 0 0 0 0 0 0 0 0 0 0 0 0 0 0 0 0 0 0 0 0 0 0 0 0 0 0 0 0 0 0 0 0 0
0 0 0 0 0 0 0 0 0 0 0 0 0 0 0 0 0 0 0 0 0 0 0 0 0 0 0 0 0 0 0 0 0 0 0 0 0 0 0 0 0 0 0 0 0 0 0 0 0
0 0 0 0 0 0 0 0 0 0 0 0 0 0 0 0 0 0 0 0 0 0 0 0 0 0 0 0 0 0 0 0 0 0 0 0 0 0 0 0 0 0 0 0 0 0 0 0 0
0 0 0 0 0 0 0 0 0 0 0 0 0 0 0 0 0 0 0 0 0 0 0 0 0 0 0 0 0 0 0 0 0 0 0 0 0 0 0 0 0 0 0 0 0 0 0 0 0
0 0 0 0 0 0 0 0 0 0 0 0 0 0 0 0 0 0 0 0 0 0 0 0 0 0 0 0 0 0 0 0 0 0 0 0 0 0 0 0 0 0 0 0 0 0 0 0 0
Wind_Speed
7 4 2 4 6 4 3 5 3 1 1 1 2 5 7 5 3 4 2 4 6 6 4 6 10 11 12 12 12 12 12 12 11 11 12 12 12 12 13 12 13 13 13 14 14 14 14 14 14
3 2 4 5 5 2 5 4 4 4 4 3 3 4 6 4 2 5 3 3 6 6 5 5 10 11 12 12 12 12 12 12 11 11 11 12 12 12 12 12 12 13 13 13 13 13 13 13 13
3 1 4 5 4 6 6 4 6 3 1 2 3 4 4 3 3 3 3 5 6 5 4 6 10 11 12 12 12 12 12 11 11 11 11 12 12 12 12 12 12 12 12 12 12 13 12 12 12
3 4 5 3 5 6 5 3 3 3 1 2 4 4 2 2 3 3 5 7 7 6 4 6 11 11 12 12 12 12 11 11 11 10 11 12 12 12 12 12 12 12 12 12 12 12 12 12 12
4 4 3 1 6 4 3 2 3 3 2 1 4 5 2 3 3 6 7 7 8 6 4 5 10 11 11 12 11 11 11 11 10 10 11 11 12 12 12 12 11 12 12 11 11 11 12 12 12
4 4 3 5 6 3 2 2 2 1 1 1 4 5 2 1 4 6 7 7 7 6 5 5 9 10 10 10 11 11 11 10 10 10 11 11 11 11 11 11 11 12 11 11 11 11 11 11 11
4 4 4 5 4 4 3 2 3 3 2 2 4 6 2 1 2 5 6 7 6 6 5 4 4 6 8 9 10 10 10 10 10 10 10 10 10 10 10 10 11 11 11 11 11 11 11 11 11
4 4 2 3 4 5 2 2 1 3 2 1 4 7 5 4 4 6 6 6 6 5 5 4 4 4 4 5 8 9 9 9 9 9 9 9 9 9 9 9 10 10 10 10 11 11 11 11 11
3 3 5 5 5 4 1 2 1 2 4 3 3 2 3 8 8 8 6 5 4 4 4 4 4 4 4 4 6 7 8 8 8 7 9 7 4 4 5 7 9 9 9 9 10 10 10 10 10
3 4 7 4 3 2 1 1 2 3 3 2 3 4 6 9 9 9 7 6 5 4 3 3 4 4 3 3 4 3 4 4 4 4 4 3 3 3 4 7 8 9 9 9 9 10 9 7 4
4 6 4 3 2 1 0 1 1 4 2 4 5 7 8 8 7 8 7 6 5 5 4 3 3 3 3 3 3 2 2 2 3 4 4 3 3 3 3 2 4 4 6 4 5 5 4 4 3
3 2 3 2 1 0 1 1 1 1 4 2 6 10 10 9 8 8 7 6 5 5 4 3 3 4 4 3 3 3 2 2 2 3 4 3 2 3 2 2 2 2 2 3 3 2 3 4 4
3 2 1 2 0 0 1 1 1 2 1 4 7 8 9 8 7 5 4 4 4 4 4 4 4 4 4 4 3 3 3 2 2 3 3 3 3 2 2 2 2 2 2 2 2 3 3 3 4
3 2 2 2 1 1 2 2 1 4 2 5 6 7 8 8 7 5 4 4 5 5 4 4 4 4 5 4 3 3 3 3 3 3 3 3 3 2 2 2 2 2 2 2 2 3 3 2 3
2 1 2 3 3 3 2 3 4 4 4 5 5 5 6 6 6 6 6 6 5 5 5 5 5 5 5 5 4 3 3 3 3 2 3 3 3 3 2 2 2 1 2 2 2 3 3 3 3
1 1 3 4 3 3 5 8 4 3 5 5 4 4 4 5 6 5 5 4 4 4 5 5 5 5 5 4 4 3 3 4 3 2 2 3 4 3 3 2 2 2 2 2 2 3 3 3 3
0 3 5 3 2 3 5 6 3 3 5 5 4 4 5 4 4 4 5 5 5 5 6 5 5 5 4 5 4 4 4 4 3 2 3 3 3 4 3 2 2 2 2 2 2 3 2 3 2
5 4 4 5 3 4 5 6 3 2 4 5 4 4 4 5 5 5 5 5 5 5 5 6 5 5 4 4 4 3 4 3 3 2 3 3 3 3 3 3 3 3 3 3 3 3 3 2 2
4 4 5 4 2 3 6 7 7 4 3 4 4 4 5 5 3 3 4 5 5 5 5 6 5 4 4 3 3 3 2 2 2 2 3 3 3 3 3 3 3 3 3 3 3 3 3 3 2
4 4 4 2 1 3 4 7 6 4 5 6 7 6 6 3 2 3 4 5 5 6 5 5 5 5 4 3 2 2 3 2 2 2 3 3 3 2 3 3 2 2 3 3 3 3 2 2 2
5 6 5 4 2 0 1 6 4 3 3 3 4 4 4 6 6 5 5 5 5 6 6 5 5 5 4 4 3 3 3 3 2 2 2 2 3 3 3 3 3 2 2 2 2 3 3 1 1
7 5 4 4 2 3 2 5 6 3 3 4 5 5 5 5 5 5 5 5 5 5 5 4 5 4 4 4 5 5 4 3 2 2 2 2 3 3 2 2 2 2 2 2 2 2 2 2 1
4 2 3 4 3 2 2 3 7 1 3 5 5 6 6 5 6 6 6 6 5 4 4 4 4 4 4 4 5 5 3 2 2 2 3 2 2 2 2 2 2 2 2 2 2 2 2 1 1
1 2 3 3 3 5 6 5 8 4 5 4 4 4 5 4 5 4 4 4 3 3 4 4 4 3 4 4 4 4 4 4 4 3 2 2 1 1 1 1 1 1 1 1 1 1 2 1 1
2 4 2 1 1 7 3 5 8 5 4 5 4 4 4 4 4 4 5 4 4 4 4 4 5 4 4 4 4 4 4 5 5 4 3 2 1 1 0 0 1 1 1 1 1 1 1 1 1
3 6 6 6 6 4 1 7 6 3 2 1 1 1 1 2 3 4 4 5 5 5 5 5 5 5 4 4 3 3 3 3 3 3 3 3 2 1 1 1 1 0 1 1 1 1 1 1 1
3 3 3 4 1 2 5 5 6 2 2 2 2 2 0 1 2 3 3 4 4 4 4 5 5 5 5 4 4 3 3 3 3 3 2 2 1 1 1 1 1 0 0 1 1 0 1 1 1
3 4 3 3 4 5 5 4 4 3 3 2 1 1 1 0 1 1 2 3 3 3 3 3 4 4 4 4 4 3 3 3 3 3 3 2 1 1 1 1 0 0 0 0 1 1 1 1 1
1 2 2 2 3 4 4 6 3 5 4 3 2 1 1 0 1 1 1 1 1 2 2 2 3 3 3 4 3 3 3 2 2 2 2 2 2 2 1 1 1 1 0 1 1 1 1 2 2
2 3 4 4 4 3 3 6 2 2 1 0 1 2 2 1 0 1 1 1 1 1 2 2 3 3 3 3 3 3 3 3 3 2 2 2 2 2 2 2 1 1 1 1 2 2 2 2 3
Wind_Direction
326 337 60 60 60 58 234 242 217 184 147 181 96 104 117 117 141 156 141 131 128 140 146 143 130 126 122 119 112 106 101 97 94 92 91 90 89 87 87 85 82 80 79 79 78 76 74 72 72
338 356 56 63 103 179 254 239 215 217 179 145 81 82 91 90 70 108 124 133 129 133 132 134 126 124 123 119 114 110 104 100 96 93 93 93 92 89 87 85 83 81 80 79 78 77 74 72 71
330 51 85 88 145 193 220 227 205 210 157 121 88 58 103 127 126 146 156 139 125 122 122 132 125 123 122 119 115 111 107 102 98 96 95 94 94 91 89 86 84 83 82 80 79 77 74 70 69
55 52 59 96 213 225 210 216 178 143 58 69 113 87 67 53 150 154 135 124 120 119 115 129 123 120 120 119 116 112 108 105 102 99 96 95 94 92 89 85 83 84 83 82 80 77 73 69 69
64 84 92 213 235 246 236 229 166 135 143 100 116 120 101 358 82 118 124 117 117 116 112 124 122 119 118 117 116 113 110 107 105 102 98 96 94 93 90 85 83 84 84 83 81 77 74 71 71
67 81 133 216 235 247 255 225 157 126 152 112 114 122 145 63 101 123 124 118 115 112 106 111 116 115 115 116 114 112 110 108 104 102 100 97 94 91 90 88 86 83 83 83 81 77 76 74 72
119 126 188 203 219 245 242 196 168 169 161 191 141 126 148 173 131 123 119 114 108 102 98 92 100 109 111 110 112 114 112 109 103 99 97 95 92 90 89 88 87 84 82 81 79 77 75 73 72
137 130 201 211 205 236 236 163 173 152 168 96 117 141 181 197 150 118 108 104 103 98 95 97 91 88 94 104 108 108 106 104 99 94 90 87 85 87 85 82 83 82 80 79 78 76 74 71 68
110 120 213 211 198 222 217 136 79 78 104 67 50 124 160 139 130 118 108 97 102 100 92 98 100 92 92 97 103 100 101 96 92 87 86 81 73 73 78 79 80 78 75 75 75 74 72 69 64
122 188 219 218 203 187 109 119 154 100 81 78 44 48 104 127 135 137 141 142 141 136 118 101 102 106 100 101 93 86 89 89 84 81 81 77 70 68 74 76 77 74 70 68 67 68 68 63 61
161 199 209 241 256 228 20 49 69 136 171 195 175 153 140 141 146 152 156 155 155 149 132 119 116 113 107 101 100 87 84 84 84 84 80 79 74 68 62 66 63 60 62 57 57 59 57 59 61
173 228 204 233 266 256 246 158 86 158 214 196 164 152 150 156 165 168 164 160 149 141 141 132 127 120 111 108 103 100 93 84 85 85 87 90 87 78 72 68 66 58 53 60 55 62 60 63 64
209 215 215 219 43 82 78 211 178 240 222 106 121 141 157 165 169 163 148 141 142 148 146 144 134 129 123 112 111 105 101 93 89 81 83 95 100 96 86 77 68 60 56 66 69 66 67 66 66
194 188 238 251 216 199 163 257 198 243 143 119 136 160 169 171 166 153 148 154 161 162 158 147 139 133 125 122 116 111 106 102 89 77 70 86 96 99 100 87 70 59 55 63 77 77 73 69 74
149 132 293 253 221 203 139 287 237 224 142 142 156 168 169 172 163 171 175 172 171 165 153 148 143 131 130 126 118 111 108 100 91 81 71 74 81 90 95 94 77 58 61 70 77 71 74 71 64
99 158 253 255 195 184 152 245 254 188 157 175 181 177 177 182 180 182 174 165 160 153 149 146 141 131 130 123 118 114 109 100 90 85 77 71 73 79 91 89 74 52 66 71 85 78 79 67 62
171 216 233 264 200 154 173 237 249 184 169 189 194 193 188 189 191 187 175 167 161 156 149 143 131 131 130 123 118 110 103 97 91 85 79 70 70 72 80 86 74 72 72 63 74 71 82 81 62
207 209 218 221 215 160 197 237 254 206 183 201 206 200 195 195 204 187 171 164 154 149 147 145 135 130 127 117 108 101 92 88 88 83 78 77 69 71 75 75 68 78 80 66 68 79 67 79 75
182 196 228 237 212 173 216 242 255 239 208 214 216 208 206 214 199 155 157 154 145 142 147 149 141 137 132 134 137 134 134 117 97 91 82 79 72 72 79 80 74 74 79 79 85 88 76 51 52
218 230 243 277 243 191 235 258 255 226 217 210 208 210 210 199 162 158 158 155 154 155 156 152 149 147 148 149 138 135 126 111 104 92 84 77 75 75 82 85 86 79 83 79 79 84 85 56 34
228 220 225 233 323 230 288 290 260 247 223 222 219 215 203 191 186 177 172 172 164 163 167 163 158 153 148 133 119 111 92 80 76 75 81 70 78 71 73 83 90 85 94 100 90 87 93 108 17
233 227 220 213 195 253 191 268 272 235 249 238 238 229 217 202 187 174 174 172 175 174 165 155 156 151 148 144 144 143 143 140 153 142 116 88 81 77 69 79 91 94 91 102 107 82 84 113 104
226 216 209 207 191 250 247 231 275 239 251 250 244 235 221 202 185 180 180 178 173 161 156 154 150 151 151 152 150 152 138 125 113 115 112 101 84 78 73 77 81 90 85 98 102 82 83 100 129
159 70 57 63 102 243 223 202 269 233 227 248 250 242 221 200 188 181 167 147 143 144 146 146 145 150 153 151 151 155 148 138 131 136 143 137 106 84 66 72 77 86 94 110 116 112 106 108 119
86 102 60 351 259 245 200 203 251 257 234 222 233 243 228 197 182 171 163 159 155 154 157 156 155 158 161 156 160 163 159 156 158 163 165 157 147 143 167 95 108 108 103 108 102 115 145 146 150
190 159 168 196 219 261 220 226 252 266 286 262 240 263 199 173 175 174 175 168 165 163 164 165 170 168 167 167 169 161 158 161 161 164 164 174 181 181 176 163 128 111 122 106 110 129 194 176 184
155 200 179 139 138 250 250 271 295 323 0 19 25 24 2 182 176 176 168 164 165 166 172 176 176 174 175 175 165 160 163 166 164 159 155 164 164 160 152 149 157 180 157 168 164 199 230 209 218
158 150 110 139 177 238 267 248 246 258 265 305 339 332 320 11 142 153 163 167 166 168 167 167 172 176 174 169 172 174 174 176 164 154 160 160 156 140 151 149 181 212 268 250 203 227 238 232 247
98 138 146 169 187 188 242 260 230 211 211 215 247 275 300 195 190 176 170 158 150 140 146 159 164 160 163 170 172 168 169 164 158 166 175 171 166 163 181 190 216 239 269 287 254 250 239 236 251
155 173 151 175 237 206 214 264 293 217 211 108 332 343 356 24 37 119 132 118 124 145 160 172 170 168 179 175 168 170 165 156 165 177 184 177 181 186 195 201 216 239 258 252 242 256 264 247 246